Time,TemperatureF,DewpointF,PressureIn,WindDirection,WindDirectionDegrees,WindSpeedMPH,WindSpeedGustMPH,Humidity,HourlyPrecipIn,Conditions,Clouds,dailyrainin,SoftwareType,DateUTC
2013-12-24 00:02:00,15.0,9.0,30.58,SSE,155,0.0,5.0,78,0.00,,,0.00,,2013-12-24 06:02:00,
2013-12-24 00:22:00,15.0,10.0,30.57,SSE,148,3.0,5.0,79,0.00,,,0.00,,2013-12-24 06:22:00,
2013-12-24 00:33:00,15.0,10.0,30.57,SSE,148,3.0,5.0,79,0.00,,,0.00,,2013-12-24 06:33:00,
2013-12-24 00:42:00,15.0,10.0,30.57,SSE,148,3.0,5.0,79,0.00,,,0.00,,2013-12-24 06:42:00,
2013-12-24 00:52:00,15.0,10.0,30.55,SSW,200,2.0,6.0,81,0.00,,,0.00,,2013-12-24 06:52:00,
2013-12-24 01:11:00,15.0,10.0,30.55,SSE,155,4.0,8.0,81,0.00,,,0.00,,2013-12-24 07:11:00,
2013-12-24 01:22:00,15.0,10.0,30.55,SSE,155,4.0,8.0,81,0.00,,,0.00,,2013-12-24 07:22:00,
2013-12-24 01:42:00,15.0,11.0,30.53,SW,222,1.0,7.0,82,0.00,,,0.00,,2013-12-24 07:42:00,
2013-12-24 01:52:00,15.0,11.0,30.53,SW,222,1.0,7.0,82,0.00,,,0.00,,2013-12-24 07:52:00,
2013-12-24 02:22:00,16.0,12.0,30.51,SE,145,0.0,7.0,83,0.00,,,0.00,,2013-12-24 08:22:00,
2013-12-24 02:52:00,16.0,12.0,30.50,SE,141,5.0,7.0,83,0.00,,,0.00,,2013-12-24 08:52:00,
2013-12-24 03:21:00,16.0,12.0,30.49,SE,136,2.0,8.0,83,0.00,,,0.00,,2013-12-24 09:21:00,
2013-12-24 03:33:00,16.0,12.0,30.49,SE,136,2.0,8.0,83,0.00,,,0.00,,2013-12-24 09:33:00,
2013-12-24 03:43:00,16.0,12.0,30.49,SE,136,2.0,8.0,83,0.00,,,0.00,,2013-12-24 09:43:00,
2013-12-24 03:53:00,16.0,12.0,30.47,SE,142,2.0,9.0,83,0.00,,,0.00,,2013-12-24 09:53:00,
2013-12-24 04:23:00,15.0,11.0,30.45,SE,141,3.0,7.0,83,0.00,,,0.00,,2013-12-24 10:23:00,
2013-12-24 04:33:00,15.0,11.0,30.45,SE,141,3.0,7.0,83,0.00,,,0.00,,2013-12-24 10:33:00,
2013-12-24 04:53:00,15.0,11.0,30.43,SE,141,3.0,3.0,83,0.00,,,0.00,,2013-12-24 10:53:00,
2013-12-24 05:02:00,15.0,11.0,30.43,SE,141,3.0,3.0,83,0.00,,,0.00,,2013-12-24 11:02:00,
2013-12-24 05:12:00,15.0,11.0,30.43,SE,141,3.0,3.0,83,0.00,,,0.00,,2013-12-24 11:12:00,
2013-12-24 05:22:00,15.0,11.0,30.43,SE,141,3.0,3.0,83,0.00,,,0.00,,2013-12-24 11:22:00,
2013-12-24 05:42:00,15.0,11.0,30.40,SE,141,3.0,3.0,83,0.00,,,0.00,,2013-12-24 11:42:00,
2013-12-24 05:53:00,15.0,11.0,30.39,SE,141,3.0,3.0,83,0.00,,,0.00,,2013-12-24 11:53:00,
2013-12-24 06:11:00,15.0,11.0,30.38,SE,141,3.0,3.0,83,0.00,,,0.00,,2013-12-24 12:11:00,
2013-12-24 06:22:00,15.0,11.0,30.38,SE,141,3.0,3.0,83,0.00,,,0.00,,2013-12-24 12:22:00,
2013-12-24 06:42:00,15.0,11.0,30.38,SE,141,3.0,3.0,83,0.00,,,0.00,,2013-12-24 12:42:00,
2013-12-24 06:52:00,15.0,11.0,30.38,SE,141,3.0,3.0,83,0.00,,,0.00,,2013-12-24 12:52:00,
2013-12-24 07:22:00,15.0,11.0,30.37,SE,141,3.0,3.0,83,0.00,,,0.00,,2013-12-24 13:22:00,
2013-12-24 07:42:00,15.0,11.0,30.37,SE,141,3.0,3.0,83,0.00,,,0.00,,2013-12-24 13:42:00,
2013-12-24 07:52:00,15.0,11.0,30.37,SE,141,3.0,3.0,83,0.00,,,0.00,,2013-12-24 13:52:00,
2013-12-24 08:11:00,15.0,11.0,30.37,SE,141,3.0,3.0,83,0.00,,,0.00,,2013-12-24 14:11:00,
2013-12-24 08:22:00,15.0,11.0,30.37,SE,141,3.0,3.0,83,0.00,,,0.00,,2013-12-24 14:22:00,
2013-12-24 08:52:00,21.0,18.0,30.37,South,175,6.0,10.0,87,0.00,,,0.00,,2013-12-24 14:52:00,
2013-12-24 09:02:00,21.0,18.0,30.37,South,175,6.0,10.0,87,0.00,,,0.00,,2013-12-24 15:02:00,
2013-12-24 09:11:00,21.0,18.0,30.37,South,175,6.0,10.0,87,0.00,,,0.00,,2013-12-24 15:11:00,
2013-12-24 09:21:00,21.0,18.0,30.37,South,175,6.0,10.0,87,0.00,,,0.00,,2013-12-24 15:21:00,
2013-12-24 09:54:00,22.0,18.0,30.35,South,183,3.0,16.0,86,0.00,,,0.00,,2013-12-24 15:54:00,
2013-12-24 10:23:00,21.0,17.0,30.35,South,169,9.0,14.0,85,0.00,,,0.00,,2013-12-24 16:23:00,
2013-12-24 10:33:00,21.0,17.0,30.35,South,169,9.0,14.0,85,0.00,,,0.00,,2013-12-24 16:33:00,
2013-12-24 10:53:00,21.0,17.0,30.34,SSE,148,5.0,16.0,86,0.00,,,0.00,,2013-12-24 16:53:00,
2013-12-24 11:12:00,21.0,18.0,30.33,SE,132,7.0,16.0,87,0.00,,,0.00,,2013-12-24 17:12:00,
2013-12-24 11:22:00,21.0,18.0,30.33,SE,132,7.0,16.0,87,0.00,,,0.00,,2013-12-24 17:22:00,
2013-12-24 11:42:00,20.0,16.0,30.30,SSE,156,10.0,16.0,86,0.00,,,0.00,,2013-12-24 17:42:00,
2013-12-24 11:52:00,20.0,16.0,30.30,SSE,156,10.0,16.0,86,0.00,,,0.00,,2013-12-24 17:52:00,
2013-12-24 12:02:00,20.0,16.0,30.30,SSE,156,10.0,16.0,86,0.00,,,0.00,,2013-12-24 18:02:00,
2013-12-24 12:12:00,20.0,16.0,30.30,SSE,156,10.0,16.0,86,0.00,,,0.00,,2013-12-24 18:12:00,
2013-12-24 13:22:00,23.0,20.0,30.24,South,176,5.0,13.0,88,0.00,,,0.00,,2013-12-24 19:22:00,
2013-12-24 13:52:00,24.0,21.0,30.21,SSW,197,8.0,17.0,87,0.00,,,0.00,,2013-12-24 19:52:00,
2013-12-24 14:22:00,25.0,22.0,30.18,SE,139,10.0,14.0,87,0.00,,,0.00,,2013-12-24 20:22:00,
2013-12-24 14:42:00,25.0,22.0,30.17,SSE,165,7.0,19.0,87,0.00,,,0.00,,2013-12-24 20:42:00,
2013-12-24 14:52:00,25.0,22.0,30.17,SSE,165,7.0,19.0,87,0.00,,,0.00,,2013-12-24 20:52:00,
2013-12-24 15:11:00,25.0,22.0,30.16,South,180,3.0,14.0,89,0.00,,,0.00,,2013-12-24 21:11:00,
2013-12-24 15:22:00,25.0,22.0,30.16,South,180,3.0,14.0,89,0.00,,,0.00,,2013-12-24 21:22:00,
2013-12-24 15:33:00,25.0,22.0,30.16,South,180,3.0,14.0,89,0.00,,,0.00,,2013-12-24 21:33:00,
2013-12-24 15:43:00,25.0,22.0,30.16,South,180,3.0,14.0,89,0.00,,,0.00,,2013-12-24 21:43:00,
2013-12-24 15:53:00,26.0,23.0,30.17,SE,141,5.0,13.0,89,0.00,,,0.00,,2013-12-24 21:53:00,
2013-12-24 16:03:00,26.0,23.0,30.17,SE,141,5.0,13.0,89,0.00,,,0.00,,2013-12-24 22:03:00,
2013-12-24 16:12:00,26.0,23.0,30.17,SE,141,5.0,13.0,89,0.00,,,0.00,,2013-12-24 22:12:00,
2013-12-24 16:23:00,26.0,23.0,30.17,SE,141,5.0,13.0,89,0.00,,,0.00,,2013-12-24 22:23:00,
2013-12-24 16:53:00,26.0,23.0,30.19,SSE,166,3.0,8.0,90,0.00,,,0.00,,2013-12-24 22:53:00,
2013-12-24 17:01:00,26.0,24.0,30.19,SE,134,4.0,9.0,91,0.00,,,0.00,,2013-12-24 23:01:00,
2013-12-24 17:02:00,26.0,23.0,30.19,SSE,166,3.0,8.0,90,0.00,,,0.00,,2013-12-24 23:02:00,
2013-12-24 17:21:00,26.0,24.0,30.19,SE,134,4.0,9.0,91,0.00,,,0.00,,2013-12-24 23:21:00,
2013-12-24 17:33:00,26.0,24.0,30.19,SE,134,4.0,9.0,91,0.00,,,0.00,,2013-12-24 23:33:00,
2013-12-24 17:42:00,26.0,24.0,30.19,SE,134,4.0,9.0,91,0.00,,,0.00,,2013-12-24 23:42:00,
2013-12-24 17:53:00,26.0,24.0,30.19,SE,134,4.0,9.0,91,0.00,,,0.00,,2013-12-24 23:53:00,
2013-12-24 18:42:00,27.0,25.0,30.24,WSW,245,0.0,3.0,93,0.00,,,0.00,,2013-12-25 00:42:00,
2013-12-24 18:52:00,27.0,25.0,30.24,WSW,245,0.0,3.0,93,0.00,,,0.00,,2013-12-25 00:52:00,
2013-12-24 19:02:00,27.0,25.0,30.24,WSW,245,0.0,3.0,93,0.00,,,0.00,,2013-12-25 01:02:00,
2013-12-24 19:22:00,27.0,26.0,30.24,South,172,2.0,4.0,94,0.00,,,0.00,,2013-12-25 01:22:00,
2013-12-24 19:32:00,27.0,26.0,30.24,South,172,2.0,4.0,94,0.00,,,0.00,,2013-12-25 01:32:00,
2013-12-24 19:52:00,28.0,27.0,30.26,SW,229,0.0,3.0,94,0.00,,,0.00,,2013-12-25 01:52:00,
2013-12-24 20:22:00,28.0,27.0,30.28,WSW,239,2.0,5.0,95,0.00,,,0.00,,2013-12-25 02:22:00,
2013-12-24 20:32:00,28.0,27.0,30.28,WSW,239,2.0,5.0,95,0.00,,,0.00,,2013-12-25 02:32:00,
2013-12-24 20:53:00,28.0,27.0,30.29,SW,219,0.0,3.0,95,0.00,,,0.00,,2013-12-25 02:53:00,
2013-12-24 21:22:00,28.0,27.0,30.29,South,184,0.0,1.0,95,0.00,,,0.00,,2013-12-25 03:22:00,
2013-12-24 21:33:00,28.0,27.0,30.29,South,184,0.0,1.0,95,0.00,,,0.00,,2013-12-25 03:33:00,
2013-12-24 21:53:00,29.0,28.0,30.29,SSE,152,0.0,3.0,95,0.00,,,0.00,,2013-12-25 03:53:00,
2013-12-24 22:23:00,29.0,28.0,30.28,SW,228,0.0,1.0,95,0.00,,,0.00,,2013-12-25 04:23:00,
2013-12-24 22:43:00,29.0,28.0,30.29,SW,233,0.0,1.0,95,0.00,,,0.00,,2013-12-25 04:43:00,
2013-12-24 22:53:00,29.0,28.0,30.29,SW,233,0.0,1.0,95,0.00,,,0.00,,2013-12-25 04:53:00,
2013-12-24 23:22:00,30.0,29.0,30.32,SW,225,0.0,1.0,95,0.00,,,0.00,,2013-12-25 05:22:00,
2013-12-24 23:33:00,30.0,29.0,30.32,SW,225,0.0,1.0,95,0.00,,,0.00,,2013-12-25 05:33:00,
2013-12-24 23:42:00,30.0,29.0,30.32,SW,225,0.0,1.0,95,0.00,,,0.00,,2013-12-25 05:42:00,
2013-12-24 23:53:00,30.0,29.0,30.32,SW,225,0.0,1.0,95,0.00,,,0.00,,2013-12-25 05:53:00,